Idaho Falls, ID

3:15 AM MST on November 20, 2017 (GMT -0700)
Fanning

Weather History for KIDA - September, 2012

Change the Weather History Date:

Tuesday, September 18, 2012

  Actual Average Record
Temperature  
Mean Temperature 58 °F 56 °F  
Max Temperature 78 °F 73 °F 90 °F (1956)
Min Temperature 37 °F 40 °F 21 °F (1965)
Degree Days  
Heating Degree Days 7 9  
Month to date heating degree days 75 104  
Since 1 July heating degree days 84 169  
Cooling Degree Days 0 0  
Month to date cooling degree days 2 10  
Year to date cooling degree days 444 262  
Growing Degree Days 8 (Base 50)    
Moisture  
Dew Point 29 °F    
Average Humidity 46    
Maximum Humidity 82    
Minimum Humidity 10    
Precipitation  
Precipitation 0.00 in 0.03 in 0.66 in (1961)
Month to date precipitation 0.13 0.49  
Year to date precipitation 4.26 7.47  
Sea Level Pressure  
Sea Level Pressure 30.14 in    
Wind  
Wind Speed 7 mph (SSW)    
Max Wind Speed 16 mph    
Max Gust Speed 21 mph    
Visibility 8 miles    
Events      
T = Trace of Precipitation, MM = Missing Value Source: NWS Daily Summary

Daily Weather History Graph

Daily Weather History Graph

Search for Another Location

Airport or City:

Trip Planner

Search our weather history database for the weather conditions in past years. The results will help you decide how hot, cold, wet, or windy it might be!

Date:

Astronomy

Sep. 18, 2012 Rise Set
Actual Time 7:11 AM MDT 7:31 PM MDT
Civil Twilight 6:43 AM MDT 8:00 PM MDT
Nautical Twilight 6:09 AM MDT 8:34 PM MDT
Astronomical Twilight 5:34 AM MDT 9:08 PM MDT
Moon 10:23 AM MDT (9/18) 8:49 PM MDT (9/18)
Length of Visible Light 13h 17m
Length of Day
12h 20m
Waxing Crescent, 9% of the Moon is Illuminated
Sep 18
Waxing Crescent
Sep 22
First Quarter
Sep 29
Full
Oct 8
Last Quarter
Oct 15
New

Hourly Weather History & Observations

Time (MDT) Temp. Windchill Dew Point Humidity Pressure Visibility Wind Dir Wind Speed Gust Speed Precip Events Conditions
12:53 AM 52.0 °F - 34.0 °F 50% 30.13 in 8.0 mi SSW 8.1 mph - N/A   Clear
1:53 AM 48.9 °F - 35.1 °F 59% 30.14 in 8.0 mi Calm Calm - N/A   Clear
2:53 AM 52.0 °F - 33.1 °F 49% 30.13 in 8.0 mi SSW 5.8 mph - N/A   Clear
3:53 AM 41.0 °F - 34.0 °F 76% 30.16 in 8.0 mi Calm Calm - N/A   Clear
4:53 AM 42.1 °F 39.2 °F 34.0 °F 73% 30.16 in 8.0 mi North 4.6 mph - N/A   Clear
5:53 AM 42.1 °F 40.2 °F 33.1 °F 70% 30.17 in 8.0 mi NNW 3.5 mph - N/A   Clear
6:53 AM 37.0 °F - 32.0 °F 82% 30.20 in 6.0 mi Calm Calm - N/A   Haze
7:53 AM 39.9 °F 36.7 °F 33.1 °F 77% 30.21 in 5.0 mi NNE 4.6 mph - N/A   Haze
8:53 AM 45.0 °F 43.5 °F 37.9 °F 76% 30.22 in 5.0 mi North 3.5 mph - N/A   Haze
9:53 AM 51.1 °F - 36.0 °F 56% 30.22 in 5.0 mi Calm Calm - N/A   Haze
10:53 AM 61.0 °F - 34.0 °F 36% 30.20 in 4.0 mi South 5.8 mph - N/A   Haze
11:53 AM 66.9 °F - 28.0 °F 23% 30.19 in 6.0 mi South 10.4 mph - N/A   Haze
12:53 PM 70.0 °F - 26.1 °F 19% 30.17 in 7.0 mi South 12.7 mph - N/A   Smoke
1:53 PM 73.9 °F - 19.9 °F 13% 30.14 in 10.0 mi SSW 11.5 mph 17.3 mph N/A   Smoke
2:53 PM 75.9 °F - 15.1 °F 10% 30.11 in 10.0 mi SSW 15.0 mph - N/A   Smoke
3:53 PM 77.0 °F - 21.0 °F 12% 30.11 in 10.0 mi SSW 15.0 mph - N/A   Smoke
4:53 PM 78.1 °F - 25.0 °F 14% 30.09 in 10.0 mi SSW 12.7 mph 18.4 mph N/A   Smoke
5:53 PM 78.1 °F - 24.1 °F 14% 30.08 in 10.0 mi SSW 11.5 mph - N/A   Smoke
6:53 PM 73.9 °F - 27.0 °F 18% 30.09 in 10.0 mi South 10.4 mph - N/A   Smoke
7:53 PM 70.0 °F - 28.0 °F 21% 30.09 in 10.0 mi South 8.1 mph - N/A   Clear
8:53 PM 66.0 °F - 28.0 °F 24% 30.10 in 10.0 mi South 5.8 mph - N/A   Clear
9:53 PM 62.1 °F - 26.1 °F 25% 30.10 in 10.0 mi SSW 6.9 mph - N/A   Clear
10:53 PM 55.9 °F - 28.9 °F 36% 30.10 in 10.0 mi SSW 5.8 mph - N/A   Clear
11:53 PM 55.0 °F - 30.0 °F 38% 30.10 in 10.0 mi SSW 6.9 mph - N/A   Clear